Location: Unspecified
(0.0000°N, 0.0000°E)
Time: 17:40:20
(UTC+00:00)

STARLINK 1041 - Pass Details

Date: 23 January 2020
Orbit: 549 x 550 km, 53.0° (Epoch: 23 January)

Event Time Altitude Azimuth Distance (km) Brightness Sun altitude
Exits shadow 04:06:48 34° 113° (ESE) 907 5.2 -29.2°
Drops below altitude 10° 04:10:15 10° 58° (ENE) 1,812 6.6 -28.4°
Sets 04:12:36 0° 49° (NE) 2,702 7.5 -27.9°
